Weather observations for the past three days for
Borger, Hutchinson County Airport
| Date | Time (cdt) | Wind (kph) | Vis. (km) | Weather | Sky Cond. | Temperature (ºC) | Relative Humidity | Wind Chill (°C) | Heat Index (°C) | Pressure | Precipitation (cm) | ||||||
|---|---|---|---|---|---|---|---|---|---|---|---|---|---|---|---|---|---|
| Air | Dwpt | 6 hour | altimeter (cm) | sea level (mb) | 1 hr | 3 hr | 6 hr | ||||||||||
| Max. | Min. | ||||||||||||||||
| 31 | 07:51 | S 9 | 16.09 | Fair | CLR | 24.4 | 12.8 | 48% | 26 | 76.33 | 1012.4 | ||||||
| 31 | 06:51 | Calm | 16.09 | Fair | CLR | 24.4 | 12.2 | 28.9 | 24.4 | 47% | 26 | 76.3 | 1011.9 | ||||
| 31 | 05:51 | SW 11 | 16.09 | Fair | CLR | 25 | 12.2 | 45% | 26 | 76.25 | 1011.1 | ||||||
| 31 | 04:51 | S 19 | 16.09 | Fair | CLR | 25.6 | 12.2 | 43% | 26 | 76.23 | 1010.6 | ||||||
| 31 | 03:51 | S 15 | 16.09 | Fair | CLR | 25.6 | 12.2 | 43% | 26 | 76.2 | 1010.5 | ||||||
| 31 | 02:51 | S 9 | 16.09 | Fair | CLR | 26.7 | 12.2 | 41% | 27 | 76.2 | 1010.3 | ||||||
| 31 | 01:51 | S 24 G 39 | 16.09 | Fair | CLR | 27.8 | 12.8 | 40% | 27 | 76.17 | 1010.0 | ||||||
| 31 | 00:51 | S 28 G 48 | 16.09 | Fair | CLR | 28.9 | 12.2 | 37.8 | 28.9 | 36% | 28 | 76.15 | 1009.8 | ||||
| 30 | 23:51 | S 17 G 33 | 16.09 | Fair | CLR | 30 | 11.1 | 31% | 29 | 76.12 | 1009.4 | ||||||
| 30 | 22:51 | S 20 | 16.09 | Fair | CLR | 31.1 | 11.1 | 29% | 30 | 76.1 | 1008.9 | ||||||
| 30 | 21:51 | S 19 | 16.09 | Fair | CLR | 31.7 | 11.1 | 28% | 30 | 76.05 | 1008.5 | ||||||
| 30 | 20:51 | S 22 | 16.09 | Fair | CLR | 33.9 | 10.6 | 24% | 32 | 76 | 1007.8 | ||||||
| 30 | 19:51 | S 22 G 46 | 16.09 | Fair | CLR | 36.1 | 10.6 | 21% | 34 | 75.97 | 1007.3 | ||||||
| 30 | 18:51 | S 28 G 46 | 16.09 | Fair | CLR | 37.8 | 10 | 39.4 | 36.7 | 18% | 36 | 75.97 | 1007.3 | ||||
| 30 | 17:51 | S 28 G 43 | 16.09 | Fair | CLR | 37.8 | 9.4 | 18% | 36 | 75.95 | 1007.1 | ||||||
| 30 | 16:51 | S 33 G 50 | 16.09 | Fair and Breezy | CLR | 39.4 | 10.6 | 18% | 38 | 75.97 | 1007.2 | ||||||
| 30 | 15:51 | S 33 G 48 | 16.09 | Fair and Breezy | CLR | 38.9 | 10.6 | 18% | 37 | 76.02 | 1007.9 | ||||||
| 30 | 14:51 | S 30 G 56 | 16.09 | Fair | CLR | 38.9 | 11.1 | 19% | 38 | 76.07 | 1008.7 | ||||||
| 30 | 13:51 | SW 30 G 46 | 16.09 | Fair | CLR | 37.8 | 11.7 | 21% | 37 | 76.12 | 1009.2 | ||||||
| 30 | 12:51 | SW 30 G 46 | 16.09 | Fair | CLR | 36.7 | 11.7 | 37.2 | 23.9 | 22% | 35 | 76.17 | 1010.0 | ||||
| 30 | 11:51 | S 26 G 41 | 16.09 | Fair | CLR | 35 | 14.4 | 29% | 34 | 76.23 | 1010.5 | ||||||
| 30 | 10:51 | SW 28 G 43 | 16.09 | Fair | CLR | 32.8 | 15 | 34% | 32 | 76.23 | 1010.7 | ||||||
| 30 | 09:51 | SW 22 | 16.09 | Fair | CLR | 30.6 | 15 | 39% | 30 | 76.23 | 1010.7 | ||||||
| 30 | 08:51 | SW 22 | 16.09 | Fair | CLR | 27.8 | 13.9 | 43% | 28 | 76.23 | 1011.0 | ||||||
| 30 | 07:51 | SW 15 | 16.09 | Fair | CLR | 25.6 | 13.3 | 47% | 26 | 76.25 | 1011.1 | ||||||
| 30 | 06:51 | S 15 | 16.09 | Fair | CLR | 24.4 | 12.8 | 28.3 | 24.4 | 48% | 26 | 76.2 | 1010.5 | ||||
| 30 | 05:51 | S 17 | 16.09 | Fair | CLR | 25 | 12.2 | 45% | 26 | 76.2 | 1010.4 | ||||||
| 30 | 04:51 | S 17 | 16.09 | Fair | CLR | 25.6 | 12.2 | 43% | 26 | 76.17 | 1010.1 | ||||||
| 30 | 03:51 | S 19 | 16.09 | Fair | CLR | 26.7 | 11.7 | 39% | 27 | 76.15 | 1009.8 | ||||||
| 30 | 02:51 | S 22 G 35 | 16.09 | Fair | CLR | 27.8 | 11.7 | 37% | 27 | 76.17 | 1009.8 | ||||||
| 30 | 01:51 | S 17 | 16.09 | Fair | CLR | 27.2 | 11.7 | 38% | 27 | 76.2 | 1010.5 | ||||||
| 30 | 00:51 | S 17 | 16.09 | Fair | CLR | 28.3 | 11.7 | 37.2 | 28.3 | 36% | 28 | 76.2 | 1010.3 | ||||
| 29 | 23:51 | S 19 | 16.09 | Fair | CLR | 29.4 | 11.7 | 33% | 28 | 76.2 | 1010.2 | ||||||
| 29 | 22:51 | S 17 G 28 | 16.09 | Fair | CLR | 30.6 | 12.2 | 32% | 30 | 76.15 | 1009.9 | ||||||
| 29 | 21:51 | S 24 G 39 | 16.09 | Fair | CLR | 32.2 | 11.7 | 28% | 31 | 76.12 | 1009.6 | ||||||
| 29 | 20:51 | S 24 G 37 | 16.09 | Fair | CLR | 33.9 | 11.1 | 25% | 32 | 76.05 | 1008.7 | ||||||
| 29 | 19:51 | S 24 G 44 | 16.09 | Fair | CLR | 36.1 | 11.1 | 22% | 35 | 76.02 | 1008.3 | ||||||
| 29 | 18:51 | S 30 G 48 | 16.09 | Fair | CLR | 37.2 | 11.1 | 38.9 | 36.1 | 21% | 36 | 76.02 | 1008.0 | ||||
| 29 | 17:51 | S 28 G 52 | 16.09 | Fair | CLR | 38.3 | 11.7 | 20% | 37 | 76.02 | 1008.1 | ||||||
| 29 | 16:51 | S 35 G 52 | 16.09 | Fair and Breezy | CLR | 38.9 | 12.2 | 20% | 38 | 76.07 | 1008.5 | ||||||
| 29 | 15:51 | S 26 G 50 | 16.09 | Fair | CLR | 38.3 | 11.7 | 20% | 37 | 76.15 | 1009.5 | ||||||
| 29 | 14:51 | S 24 G 43 | 16.09 | Fair | CLR | 38.3 | 12.2 | 21% | 37 | 76.2 | 1010.4 | ||||||
| 29 | 13:51 | SW 26 G 48 | 16.09 | Fair | CLR | 37.2 | 12.2 | 22% | 36 | 76.25 | 1011.2 | ||||||
| 29 | 12:51 | S 33 G 46 | 16.09 | Fair and Breezy | CLR | 36.1 | 12.2 | 36.7 | 23.3 | 24% | 35 | 76.33 | 1012.2 | ||||
| 29 | 11:51 | S 30 G 48 | 16.09 | Fair | CLR | 35 | 13.9 | 28% | 34 | 76.4 | 1013.2 | ||||||
| 29 | 10:51 | SW 30 G 44 | 16.09 | Fair | CLR | 32.2 | 15 | 35% | 32 | 76.43 | 1013.9 | ||||||
| 29 | 09:51 | SW 24 G 37 | 16.09 | Fair | CLR | 27.8 | 15.6 | 47% | 28 | 76.45 | 1014.4 | ||||||
| 29 | 08:51 | S 20 | 16.09 | Fair | CLR | 26.1 | 15.6 | 52% | 27 | 76.45 | 1014.5 | ||||||
| 29 | 07:51 | S 20 | 16.09 | Fair | CLR | 23.9 | 15 | 58% | 25 | 76.45 | 1014.4 | ||||||
| 29 | 06:51 | S 22 | 16.09 | Fair | CLR | 24.4 | 14.4 | 27.2 | 24.4 | 54% | 26 | 76.45 | 1014.0 | ||||
| 29 | 05:51 | S 26 G 39 | 16.09 | Fair | CLR | 25 | 13.9 | 50% | 26 | 76.43 | 1013.8 | ||||||
| 29 | 04:51 | S 22 G 39 | 16.09 | Fair | CLR | 25 | 12.2 | 45% | 26 | 76.45 | 1014.0 | ||||||
| 29 | 03:51 | S 17 | 16.09 | Fair | CLR | 25.6 | 11.1 | 40% | 26 | 76.43 | 1013.8 | ||||||
| 29 | 02:51 | S 17 | 16.09 | Fair | CLR | 25.6 | 11.7 | 42% | 26 | 76.45 | 1014.1 | ||||||
| 29 | 01:51 | S 19 | 16.09 | Fair | CLR | 26.1 | 11.7 | 41% | 26 | 76.45 | 1014.3 | ||||||
| 29 | 00:51 | S 22 | 16.09 | Fair | CLR | 27.8 | 11.7 | 35 | 27.8 | 37% | 27 | 76.48 | 1014.4 | ||||
| 28 | 23:51 | S 17 G 37 | 16.09 | Fair | CLR | 27.8 | 12.2 | 38% | 27 | 76.45 | 1014.3 | ||||||
| 28 | 22:51 | SE 19 G 33 | 16.09 | Fair | CLR | 27.8 | 13.9 | 43% | 28 | 76.45 | 1014.4 | ||||||
| 28 | 21:51 | SE 20 | 16.09 | Fair | CLR | 30 | 12.2 | 33% | 29 | 76.4 | 1013.9 | ||||||
| 28 | 20:51 | SE 22 G 35 | 16.09 | Fair | CLR | 31.1 | 12.8 | 33% | 30 | 76.35 | 1013.3 | ||||||
| 28 | 19:51 | SE 20 G 35 | 16.09 | Fair | CLR | 32.8 | 12.2 | 28% | 32 | 76.33 | 1013.0 | ||||||
| 28 | 18:51 | S 20 G 35 | 16.09 | Fair | CLR | 35 | 13.3 | 35.6 | 31.7 | 27% | 34 | 76.35 | 1012.8 | ||||
| 28 | 17:51 | S 22 G 37 | 16.09 | Fair | CLR | 35.6 | 13.9 | 27% | 35 | 76.35 | 1012.9 | ||||||
| 28 | 16:51 | S 22 G 35 | 16.09 | Fair | CLR | 35 | 14.4 | 29% | 34 | 76.38 | 1013.4 | ||||||
| 28 | 15:51 | S 19 G 31 | 16.09 | Fair | CLR | 35 | 13.9 | 28% | 34 | 76.45 | 1014.4 | ||||||
| 28 | 14:51 | Calm | 16.09 | Fair | CLR | 34.4 | 13.9 | 29% | 34 | 76.53 | 1015.3 | ||||||
| 28 | 13:51 | Vrbl 11 | 16.09 | Fair | CLR | 33.3 | 13.9 | 31% | 33 | 76.58 | 1016.1 | ||||||
| 28 | 12:51 | S 13 | 16.09 | Fair | CLR | 32.2 | 13.3 | 32.2 | 20.6 | 32% | 31 | 76.66 | 1017.2 | 0.03 | |||
| 28 | 11:51 | S 20 | 16.09 | Fair | CLR | 30 | 16.1 | 43% | 30 | 76.73 | 1018.2 | ||||||
| 28 | 10:51 | S 22 | 16.09 | Fair | CLR | 27.8 | 16.7 | 51% | 28 | 76.73 | 1018.5 | ||||||
| 28 | 09:51 | SW 7 | 16.09 | Fair | CLR | 25 | 17.2 | 62% | 26 | 76.78 | 1019.2 | 0.03 | |||||
| Date | Time (cdt) | Wind (kph) | Vis. (km) | Weather | Sky Cond. | Air | Dwpt | Max. | Min. | Relative Humidity | Wind Chill (°C) | Heat Index (°C) | altimeter (cm) | sea level (mb) | 1 hr | 3 hr | 6 hr |
| 6 hour | |||||||||||||||||
| Temperature (ºC) | Pressure | Precipitation (cm) | |||||||||||||||